Location: Great Snoring
(52.8667°N, 0.8833°E)
Time: 22:20:03
(UTC+00:00)

Cosmos 1900 - Pass Details

Date: 19 May 2025
Orbit: 678 x 737 km, 66.1° (Epoch: 12 June)

Event Time Altitude Azimuth Distance (km) Brightness Sun altitude
Rises 20:30:24 0° 318° (NW) 3,150 10.4 -5.0°
Reaches altitude 10° 20:32:45 10° 320° (NW) 2,233 8.8 -5.3°
Maximum altitude 20:37:53 83° 49° (NE) 746 4.5 -5.8°
Drops below altitude 10° 20:43:02 10° 137° (SE) 2,241 6.2 -6.4°
Enters shadow 20:43:29 - 138° (SE) 2,420 6.4 -6.4°
